User: anonymous   Login
Location: Austin, TX
(30.3000°N, 97.7500°W)
Time: 19:17:12
(UTC-05:00)
Language:

Cosmos 2082 Rocket - Orbit

View from above orbital plane
View from above orbital plane
View from above satellite
View from above satellite

Ground track
Ground track

The orbit data is extracted from the following two-line orbital elements,

1 20625U 90046B   15239.90348190 -.00000231 +00000-0 -95368-4 0  9991
2 20625 070.9986 092.8018 0013470 019.1407 072.6707 14.14583607304343
Epoch (UTC): 27 August 2015 21:41:00
Eccentricity: 0.0013470
inclination: 70.9986°
perigee height: 834 km
apogee height: 853 km
right ascension of ascending node: 92.8018°
argument of perigee: 19.1407°
revolutions per day: 14.14583607
mean anomaly at epoch: 72.6707°
orbit number at epoch: 30434

The dashed part of the orbit path shows where the satellite is in the earth's shadow,  

DLR